DW8871 Weather Reports


time (UTC)temp
F
wind
direction
speed
knots
gust
knots
rain 1hr
in
rain 24hr
in
rain mn
in
humidity
%
barometer
mb
20260902193043 96 281 4.3 10.4 0.00 0.00 0.00 44 1013.8
20260902191536 96 310 4.3 11.3 0.00 0.00 0.00 45 1014.0
20260902190037 95 292 6.1 11.3 0.00 0.00 0.00 47 1014.1
20260902190020 96 292 6.1 10.4 0.00 0.00 0.00 47 1013.0
20260902184535 95 247 6.1 12.2 0.00 0.00 0.00 48 1014.4
20260902183041 95 277 5.2 10.4 0.00 0.00 0.00 50 1014.5
20260902181537 94 283 5.2 11.3 0.00 0.00 0.00 50 1014.7
20260902180052 94 304 4.3 9.6 0.00 0.00 0.00 51 1013.7
20260902180035 93 306 4.3 10.4 0.00 0.00 0.00 51 1014.9
20260902174538 93 348 2.6 11.3 0.00 0.00 0.00 56 1015.0
20260902173038 92 288 5.2 11.3 0.00 0.00 0.00 56 1015.1
20260902171547 92 266 5.2 9.6 0.00 0.00 0.00 55 1015.3
20260902170033 91 270 4.3 9.6 0.00 0.00 0.00 56 1015.5
20260902170016 91 290 4.3 8.7 0.00 0.00 0.00 57 1014.4
20260902164539 90 254 3.5 12.2 0.00 0.00 0.00 58 1015.6
20260902163039 90 297 3.5 11.3 0.00 0.00 0.00 58 1015.7
20260902161534 89 305 5.2 10.4 0.00 0.00 0.00 60 1015.6
20260902160053 88 275 4.3 9.6 0.00 0.00 0.00 61 1014.5
20260902160035 88 271 4.3 10.4 0.00 0.00 0.00 60 1015.6
20260902154535 87 275 6.1 10.4 0.00 0.00 0.00 61 1015.7
20260902153047 86 277 5.2 11.3 0.00 0.00 0.00 62 1015.6
20260902151535 85 5 4.3 9.6 0.00 0.00 0.00 65 1015.6
20260902150038 84 296 3.5 11.3 0.00 0.00 0.00 67 1015.7
20260902150019 84 296 3.5 10.4 0.00 0.00 0.00 67 1014.6
20260902144540 83 309 6.1 10.4 0.00 0.00 0.00 66 1015.8
20260902143036 82 281 4.3 9.6 0.00 0.00 0.00 67 1015.8
20260902141537 81 259 5.2 9.6 0.00 0.00 0.00 67 1015.9
20260902140035 81 285 4.3 8.7 0.00 0.00 0.00 69 1015.8
20260902140016 81 282 3.5 7.8 0.00 0.00 0.00 70 1014.6
20260902134543 80 266 3.5 9.6 0.00 0.00 0.00 71 1015.8
20260902133039 78 246 3.5 7.0 0.00 0.00 0.00 74 1015.8
20260902131541 77 269 2.6 6.1 0.00 0.00 0.00 75 1015.7
20260902130038 76 286 2.6 6.1 0.00 0.00 0.00 76 1015.6
20260902130030 77 284 3.5 5.2 0.00 0.00 0.00 76 1014.5
20260902124533 76 292 1.7 6.1 0.00 0.00 0.00 77 1015.4
20260902123034 75 277 2.6 6.1 0.00 0.00 0.00 78 1015.3
20260902121535 75 265 0.9 3.5 0.00 0.00 0.00 77 1015.2
20260902120033 75 267 0.9 5.2 0.00 0.00 0.00 77 1015.1
20260902120027 75 267 1.7 2.6 0.00 0.00 0.00 77 1014.1
20260902114533 74 251 1.7 3.5 0.00 0.00 0.00 78 1015.0
20260902113037 73 0 0.0 3.5 0.00 0.00 0.00 79 1014.9
20260902111534 73 0 0.0 2.6 0.00 0.00 0.00 80 1014.9
20260902110041 73 0 0.0 1.7 0.00 0.00 0.00 81 1014.9
20260902110018 73 265 0.0 1.7 0.00 0.00 0.00 82 1013.8
20260902104534 72 0 0.0 1.7 0.00 0.00 0.00 81 1014.9
20260902103034 72 0 0.0 2.6 0.00 0.00 0.00 81 1014.9
20260902101537 73 0 0.0 0.9 0.00 0.00 0.00 81 1014.6
20260902100034 73 257 0.0 0.9 0.00 0.00 0.00 82 1013.6
20260902094537 72 0 0.0 2.6 0.00 0.00 0.00 83 1014.5
20260902093038 72 0 0.0 2.6 0.00 0.00 0.00 86 1014.5
20260902091535 71 0 0.0 1.7 0.00 0.00 0.00 90 1014.5
20260902090045 71 269 0.0 0.0 0.00 0.00 0.00 90 1013.3
20260902090038 70 0 0.0 0.0 0.00 0.00 0.00 90 1014.3
20260902084539 70 0 0.0 0.0 0.00 0.00 0.00 89 1014.3
20260902083033 70 0 0.0 0.0 0.00 0.00 0.00 89 1014.1
20260902081533 71 0 0.0 0.9 0.00 0.00 0.00 89 1014.0
20260902080037 71 0 0.0 0.0 0.00 0.00 0.00 87 1014.0
20260902080022 71 269 0.0 0.0 0.00 0.00 0.00 88 1013.0
20260902074537 71 0 0.0 0.0 0.00 0.00 0.00 87 1014.0
20260902073036 71 0 0.0 0.0 0.00 0.00 0.00 84 1013.8
20260902071536 72 0 0.0 0.0 0.00 0.00 0.00 84 1013.9
20260902070036 73 269 0.0 0.0 0.00 0.00 0.00 83 1012.8
20260902064538 73 0 0.0 0.0 0.00 0.00 0.00 82 1014.0
20260902063034 74 0 0.0 0.0 0.00 0.00 0.00 79 1014.1
20260902061554 75 0 0.0 0.0 0.00 0.00 0.00 77 1014.1
20260902060040 76 0 0.0 0.0 0.00 0.00 0.00 76 1014.0
20260902060023 76 269 0.0 0.0 0.00 0.00 0.00 76 1013.1
20260902054540 77 0 0.0 0.0 0.00 0.00 0.00 72 1014.0
20260902053043 77 0 0.0 0.0 0.00 0.00 0.00 69 1014.0
20260902051533 78 0 0.0 0.9 0.00 0.00 0.00 69 1014.0
20260902050034 78 0 0.0 1.7 0.00 0.00 0.00 68 1013.9
20260902050023 78 269 0.0 1.7 0.00 0.00 0.00 69 1012.9
20260902044539 78 0 0.0 2.6 0.00 0.00 0.00 69 1013.9
20260902043033 78 0 0.0 0.9 0.00 0.00 0.00 70 1013.9
20260902041538 78 0 0.0 0.9 0.00 0.00 0.00 70 1013.9
20260902040043 78 242 0.0 0.9 0.00 0.00 0.00 72 1014.0
20260902040033 78 242 0.0 0.9 0.00 0.00 0.00 72 1012.9
20260902034539 76 0 0.0 1.7 0.00 0.00 0.00 76 1013.9
20260902033035 76 0 0.0 1.7 0.00 0.00 0.00 82 1014.0
20260902031543 76 0 0.0 0.0 0.00 0.00 0.00 82 1013.8
20260902030037 77 0 0.0 0.0 0.00 0.00 0.00 83 1013.7
20260902030028 77 252 0.0 0.0 0.00 0.00 0.00 83 1012.6
20260902024539 77 0 0.0 0.0 0.00 0.00 0.00 81 1013.6
20260902023041 78 0 0.0 0.0 0.00 0.00 0.00 78 1013.6
20260902021532 78 0 0.0 0.0 0.00 0.00 0.00 76 1013.6
20260902020038 79 0 0.0 0.0 0.00 0.00 0.00 73 1013.5
20260902020018 80 252 0.0 0.0 0.00 0.00 0.00 73 1012.3
20260902014534 80 0 0.0 0.0 0.00 0.00 0.00 72 1013.3
20260902013038 81 0 0.0 0.0 0.00 0.00 0.00 69 1013.2
20260902011535 83 0 0.0 0.0 0.00 0.00 0.00 67 1013.1
20260902010033 85 0 0.0 0.0 0.00 0.00 0.00 63 1013.0
20260902004536 87 0 0.0 0.0 0.00 0.00 0.00 58 1013.1
20260902003041 89 0 0.0 0.0 0.00 0.00 0.00 56 1013.1
20260902001551 91 0 0.0 0.9 0.00 0.00 0.00 51 1013.2
20260902000040 93 258 0.0 2.6 0.00 0.00 0.00 49 1012.2
20260902000037 93 0 0.0 2.6 0.00 0.00 0.00 48 1013.4
20260901234538 94 264 0.0 2.6 0.00 0.00 0.00 45 1013.5
20260901233035 95 261 1.7 6.1 0.00 0.00 0.00 41 1013.5
20260901231534 95 263 1.7 7.0 0.00 0.00 0.00 39 1013.4
20260901230036 96 248 1.7 5.2 0.00 0.00 0.00 41 1012.3
20260901230033 96 249 2.6 6.1 0.00 0.00 0.00 40 1013.4
20260901224533 96 267 3.5 10.4 0.00 0.00 0.00 39 1013.6
20260901223038 96 273 6.1 11.3 0.00 0.00 0.00 36 1013.5
20260901221540 97 276 5.2 10.4 0.00 0.00 0.00 35 1013.5
20260901220034 97 296 2.6 9.6 0.00 0.00 0.00 40 1013.5
20260901220028 98 293 3.5 7.0 0.00 0.00 0.00 38 1012.3
20260901214604 97 272 5.2 13.0 0.00 0.00 0.00 36 1013.6
20260901213035 97 266 3.5 7.0 0.00 0.00 0.00 35 1013.7
20260901211535 97 261 5.2 12.2 0.00 0.00 0.00 37 1013.8
20260901210040 98 280 2.6 6.1 0.00 0.00 0.00 41 1012.9
20260901210037 97 295 3.5 7.0 0.00 0.00 0.00 41 1014.0
20260901204532 97 269 7.0 12.2 0.00 0.00 0.00 35 1014.1
20260901203037 97 261 4.3 12.2 0.00 0.00 0.00 36 1014.3
20260901201533 97 292 5.2 13.0 0.00 0.00 0.00 38 1014.4
20260901200039 97 263 2.6 9.6 0.00 0.00 0.00 39 1014.5
20260901200020 98 259 2.6 8.7 0.00 0.00 0.00 39 1013.4
20260901194538 96 288 7.0 12.2 0.00 0.00 0.00 37 1014.7